Regional Weather Roundup
Issued by NWS Goodland, KS

Home | Current Version | Previous Version | Graphics & Text | Print | Product List | Glossary On
Versions: 1 2 3 4 5 6 7 8 9 10 11 12 13 14 15 16 17 18 19 20 21 22 23 24 25 26 27 28 29 30 31 32 33 34 35 36 37 38 39 40 41 42 43 44 45 46 47 48 49 50
000
ASUS43 KGLD 172008
RWRGLD

GOODLAND FORECAST AREA HOURLY WEATHER ROUNDUP
NATIONAL WEATHER SERVICE GOODLAND KS
100 PM MST TUE JAN 17 2017

...OFFICIAL OBSERVATIONS...

CITY           SKY/WX    TMP DP  RH WIND       PRES   REMARKS
GOODLAND KS    SUNNY     43  29  57 SW9       30.04F
HILL CITY KS   SUNNY     46  30  53 W9        30.08F
IMPERIAL NEB   SUNNY     42  25  50 W7        30.03F
MCCOOK NEB     SUNNY     43  28  55 W9        30.05F
AKRON CO       SUNNY     38  29  70 W10       30.00F
BURLINGTON CO  SUNNY     41  33  73 SW13      30.04F
LIMON CO       SUNNY     41  33  73 S12       30.02F
$$

...UNOFFICIAL OBSERVATIONS...

CITY           SKY/WX    TMP DP  RH WIND       PRES   REMARKS
LENORA KS        N/A     44  32  63 W6          N/A
NORTON KS      SUNNY     43  27  52 W12       30.05S
SHARON SPRINGS   N/A     48  37  65 SW10        N/A
TRIBUNE KS     SUNNY     48  32  53 SW10      30.09F
TRENTON NEB      N/A     45  32  60 CALM        N/A
KIT CARSON CO    N/A     36  31  83 MISG        N/A
YUMA CO        FAIR      37  30  75 SW6       30.01F
$$




USA.gov is the U.S. government's official web portal to all federal, state and local government web resources and services.